AirNav   Pilot Hours Calculator
 
 1007 users online  

1M9 Lake Barkley State Park Airport
Cadiz, Kentucky, USA

GOING TO CADIZ?


FAA INFORMATION EFFECTIVE 19 MAY 2022

Location

FAA Identifier: 1M9
Lat/Long: 36-49-04.0850N 087-54-27.0600W
36-49.068083N 087-54.451000W
36.8178014,-87.9075167
(estimated)
Elevation: 570.9 ft. / 174.0 m (surveyed)
Variation: 00E (1985)
From city: 4 miles SW of CADIZ, KY
Time zone: UTC -5 (UTC -6 during Standard Time)
Zip code: 42211

Airport Operations

Airport use: Open to the public
Activation date: 08/1980
Control tower: no
ARTCC: MEMPHIS CENTER
FSS: LOUISVILLE FLIGHT SERVICE STATION
NOTAMs facility: LOU (NOTAM-D service available)
Attendance: UNATNDD
Wind indicator: lighted
Segmented circle: yes
Lights: ACTVT REIL RWY 02 & 20; PAPI RWY 20; MIRL RWY 02/20 - CTAF.
Beacon: white-green (lighted land airport)
Operates sunset to sunrise.

Airport Communications

CTAF/UNICOM: 123.0

Nearby radio navigation aids

VOR radial/distance  VOR name  Freq  Var
CKVr297/26.5CLARKSVILLE VOR/DME110.6001W

Airport Services

Parking: tiedowns
Airframe service: NONE
Powerplant service: NONE
Bottled oxygen: NONE
Bulk oxygen: NONE

Runway Information

Runway 2/20

Dimensions: 4800 x 75 ft. / 1463 x 23 m
Surface: asphalt, in good condition
Weight bearing capacity: 
Single wheel: 30.0
Runway edge lights: medium intensity
Runway edge markings: FADED AND ALGAE COVD.
RUNWAY 2  RUNWAY 20
Latitude: 36-48.697500N36-49.438667N
Longitude: 087-54.622333W087-54.279667W
Elevation: 549.0 ft.570.9 ft.
Traffic pattern: leftleft
Declared distances: TORA:4800 TODA:4800 ASDA:4700 LDA:4600TORA:4800 TODA:4800 ASDA:4700 LDA:4600
Markings: nonprecision, in poor conditionnonprecision, in poor condition
Visual slope indicator: 2-light PAPI on left (3.00 degrees glide path)
Runway end identifier lights: yesyes
Obstructions: 11 ft. trees, 200 ft. from runway, 35 ft. right of centerline
TREES 150 FT L OF RWY END.
6 ft. trees, 200 ft. from runway, 162 ft. right of centerline
TREES 155 FT R OF RWY END.

Airport Ownership and Management from official FAA records

Ownership: Publicly-owned
Owner: KY DEPT OF PARKS
2 HUDSON HOLLOW UNIT 1
FRANKFORT, KY 40601
Phone (502) 892-3367
Manager: DAVID MILLER
3500 STATE PARK ROAD
CADIZ, KY 42211
Phone 270-924-1131

Airport Operational Statistics

Aircraft operations: avg 40/day *
51% military
37% transient general aviation
10% local general aviation
1% air taxi
* for 12-month period ending 17 October 2019

Additional Remarks

TRANSPORTATION TO PARK LODGE AVAIL 270-924-1131
DEER & BIRDS ON & INVOF ARPT.
FOR CD CTC CAMPBELL APCH AT 270-798-6441.

Instrument Procedures

There are no published instrument procedures at 1M9.

Some nearby airports with instrument procedures:

2M0 - Princeton-Caldwell County Airport (18 nm N)
KHOP - Campbell Army Airfield (Fort Campbell) (22 nm SE)
KHVC - Hopkinsville-Christian County Airport (22 nm E)
KCEY - Kyle-Oakley Field Airport (24 nm W)
KEOD - Sabre Army Airfield (Fort Campbell) (25 nm SE)
 
Loc | Ops | Rwys | IFR | FBO | Links
Com | Nav | Svcs | Stats | Notes
Area around 1M9 (Lake Barkley State Park Airport)
 
Road maps at: MapQuest Bing Google
 
Aerial photo
WARNING: Photo may not be current or correct
Aerial photo of 1M9 (Lake Barkley State Park Airport)
Photo taken 03-Mar-2018
looking northeast.

Do you have a better or more recent aerial photo of Lake Barkley State Park Airport that you would like to share? If so, please send us your photo.

 
Sectional chart

 
Airport distance calculator
Flying to Lake Barkley State Park Airport? Find the distance to fly.

From to 1M9

Sunrise and sunset
Times for 22-May-2022
 Local
(UTC-5)
 Zulu
(UTC)
Morning civil twilight05:1010:10
Sunrise05:4010:40
Sunset19:5700:57
Evening civil twilight20:2601:26

Current date and time
Zulu (UTC)  23-May-2022 02:46:10
Local (UTC-5)  22-May-2022 21:46:10
 
METAR
KHOP 
22nm SE 
230156Z AUTO 01010KT 10SM FEW110 17/15 A3023 RMK AO2 SLP237 T01680148
KCEY 
24nm W 
230235Z AUTO 01007KT 10SM OVC070 15/10 A3025 RMK AO1
KEOD 
25nm SE 
230158Z AUTO 02007KT 10SM OVC036 17/14 A3023 RMK AO2 SLP237 T01730137
KCKV 
27nm SE 
230152Z AUTO 01007KT 10SM OVC034 18/13 A3023 RMK AO2 SLP235 T01780133
K5M9 
33nm N 
230235Z AUTO 04005KT 10SM OVC090 14/08 A3027 RMK AO2 T01420080
KM25 
33nm W 
230235Z AUTO 04006KT 10SM SCT075 BKN110 15/10 A3026 RMK AO2 PWINO
KPHT 
37nm SW 
230235Z AUTO 02010KT 10SM OVC110 16/12 A3023 RMK A01
K2I0 
40nm NE 
230235Z AUTO 03004KT 10SM OVC090 17/08 A3027 RMK AO2 T01650084
TAF
KHOP 
22nm SE 
230000Z 2300/2406 01009KT 9999 SCT030 OVC045 QNH3018INS BECMG 2311/2312 03012G18KT 9000 -SHRA BKN015 OVC020 QNH3016INS BECMG 2317/2318 04012G18KT 9999 NSW OVC014 QNH3009INS BECMG 2400/2401 04006KT 9999 OVC020 QNH3009INS BECMG 2404/2405 VRB06KT 9000 BR BKN006 OVC013 QNH3009INS TX18/2300Z TN10/2315Z
KCKV 
27nm SE 
222039Z 2221/2318 02009KT P6SM VCSH BKN025 OVC040 TEMPO 2221/2301 5SM -SHRA SCT008 OVC015 FM230900 03008KT P6SM OVC025 FM231000 03008KT P6SM OVC020
NOTAMs
Click for the latest NOTAMs
NOTAMs are issued by the DoD/FAA and will open in a separate window not controlled by AirNav.

 

 
 

Would you like to see your business listed on this page?

 If your business provides an interesting product or service to pilots, flight crews, aircraft, or users of the Lake Barkley State Park Airport, you should consider listing it here.  To start the listing process, click on the button below
 
Add a business
 

Other Pages about Lake Barkley State Park Airport

Update a link
 
Copyright © AirNav, LLC. All rights reserved. Privacy Policy  Contact